Time,TemperatureF,DewpointF,PressureIn,WindDirection,WindDirectionDegrees,WindSpeedMPH,WindSpeedGustMPH,Humidity,HourlyPrecipIn,Conditions,Clouds,dailyrainin,SoftwareType,DateUTC
2013-07-07 01:11:00,83.0,74.0,30.05,South,173,0.0,-999.0,74,-99.99,,,-99.99,,2013-07-07 05:11:00,
2013-07-07 01:21:00,83.0,74.0,30.05,South,173,0.0,-999.0,74,-99.99,,,-99.99,,2013-07-07 05:21:00,
2013-07-07 01:31:00,83.0,74.0,30.05,South,173,0.0,-999.0,74,-99.99,,,-99.99,,2013-07-07 05:31:00,
2013-07-07 01:41:00,83.0,74.0,30.05,South,173,0.0,-999.0,74,-99.99,,,-99.99,,2013-07-07 05:41:00,
2013-07-07 01:51:00,83.0,74.0,30.05,South,173,0.0,-999.0,74,-99.99,,,-99.99,,2013-07-07 05:51:00,
2013-07-07 02:01:00,75.0,73.0,30.06,SSE,156,0.0,-999.0,92,-99.99,,,-99.99,,2013-07-07 06:01:00,
2013-07-07 02:11:00,75.0,73.0,30.06,SSE,156,0.0,-999.0,92,-99.99,,,-99.99,,2013-07-07 06:11:00,
2013-07-07 02:21:00,75.0,73.0,30.06,SSE,156,0.0,-999.0,92,-99.99,,,-99.99,,2013-07-07 06:21:00,
2013-07-07 02:32:00,74.0,72.0,30.05,SSE,156,0.0,-999.0,93,-99.99,,,-99.99,,2013-07-07 06:32:00,
2013-07-07 02:43:00,73.0,71.0,30.05,SSE,156,0.0,-999.0,94,-99.99,,,-99.99,,2013-07-07 06:43:00,
2013-07-07 02:52:00,73.0,71.0,30.05,SSE,156,0.0,-999.0,94,-99.99,,,-99.99,,2013-07-07 06:52:00,
2013-07-07 03:02:00,73.0,71.0,30.04,SSE,156,0.0,-999.0,94,-99.99,,,-99.99,,2013-07-07 07:02:00,
2013-07-07 03:11:00,73.0,71.0,30.05,SSE,156,0.0,-999.0,94,-99.99,,,-99.99,,2013-07-07 07:11:00,
2013-07-07 03:22:00,73.0,71.0,30.05,SSE,156,0.0,-999.0,94,-99.99,,,-99.99,,2013-07-07 07:22:00,
2013-07-07 03:33:00,73.0,71.0,30.04,SSE,156,0.0,-999.0,95,-99.99,,,-99.99,,2013-07-07 07:33:00,
2013-07-07 03:44:00,72.0,70.0,30.04,SSE,156,0.0,-999.0,95,-99.99,,,-99.99,,2013-07-07 07:44:00,
2013-07-07 03:53:00,72.0,70.0,30.04,SSE,156,0.0,-999.0,95,-99.99,,,-99.99,,2013-07-07 07:53:00,
2013-07-07 04:03:00,72.0,70.0,30.04,SSE,156,0.0,-999.0,95,-99.99,,,-99.99,,2013-07-07 08:03:00,
2013-07-07 04:12:00,72.0,70.0,30.03,SSE,156,0.0,-999.0,95,-99.99,,,-99.99,,2013-07-07 08:12:00,
2013-07-07 04:22:00,72.0,70.0,30.03,SSE,156,0.0,-999.0,95,-99.99,,,-99.99,,2013-07-07 08:22:00,
2013-07-07 04:34:00,72.0,71.0,30.03,SSE,156,0.0,-999.0,96,-99.99,,,-99.99,,2013-07-07 08:34:00,
2013-07-07 04:44:00,72.0,71.0,30.03,SSE,156,0.0,-999.0,96,-99.99,,,-99.99,,2013-07-07 08:44:00,
2013-07-07 04:53:00,72.0,71.0,30.03,SSE,156,0.0,-999.0,96,-99.99,,,-99.99,,2013-07-07 08:53:00,
2013-07-07 05:02:00,72.0,71.0,30.03,SSE,156,0.0,-999.0,97,-99.99,,,-99.99,,2013-07-07 09:02:00,
2013-07-07 05:12:00,72.0,71.0,30.03,South,178,0.0,-999.0,97,-99.99,,,-99.99,,2013-07-07 09:12:00,
2013-07-07 05:22:00,72.0,71.0,30.03,South,178,0.0,-999.0,97,-99.99,,,-99.99,,2013-07-07 09:22:00,
2013-07-07 05:34:00,73.0,72.0,30.03,South,178,0.0,-999.0,96,-99.99,,,-99.99,,2013-07-07 09:34:00,
2013-07-07 05:43:00,73.0,72.0,30.03,South,178,0.0,-999.0,96,-99.99,,,-99.99,,2013-07-07 09:43:00,
2013-07-07 05:53:00,73.0,72.0,30.03,South,178,0.0,-999.0,96,-99.99,,,-99.99,,2013-07-07 09:53:00,
2013-07-07 06:03:00,73.0,71.0,30.03,South,178,0.0,-999.0,95,-99.99,,,-99.99,,2013-07-07 10:03:00,
2013-07-07 06:23:00,73.0,72.0,30.03,South,178,0.0,-999.0,96,-99.99,,,-99.99,,2013-07-07 10:23:00,
2013-07-07 06:32:00,73.0,72.0,30.04,South,178,0.0,-999.0,96,-99.99,,,-99.99,,2013-07-07 10:32:00,
2013-07-07 06:43:00,73.0,72.0,30.04,South,178,0.0,-999.0,96,-99.99,,,-99.99,,2013-07-07 10:43:00,
2013-07-07 06:52:00,73.0,72.0,30.04,South,178,0.0,-999.0,96,-99.99,,,-99.99,,2013-07-07 10:52:00,
2013-07-07 07:02:00,74.0,73.0,30.04,South,178,0.0,-999.0,96,-99.99,,,-99.99,,2013-07-07 11:02:00,
2013-07-07 07:12:00,74.0,72.0,30.04,South,178,0.0,-999.0,95,-99.99,,,-99.99,,2013-07-07 11:12:00,
2013-07-07 07:23:00,74.0,72.0,30.04,South,178,0.0,-999.0,95,-99.99,,,-99.99,,2013-07-07 11:23:00,
2013-07-07 07:34:00,75.0,73.0,30.04,SSE,164,0.0,-999.0,95,-99.99,,,-99.99,,2013-07-07 11:34:00,
2013-07-07 07:43:00,75.0,73.0,30.05,WNW,302,0.0,-999.0,94,-99.99,,,-99.99,,2013-07-07 11:43:00,
2013-07-07 07:53:00,75.0,73.0,30.05,WNW,302,0.0,-999.0,94,-99.99,,,-99.99,,2013-07-07 11:53:00,
2013-07-07 08:02:00,76.0,74.0,30.05,NW,306,0.0,-999.0,94,-99.99,,,-99.99,,2013-07-07 12:02:00,
2013-07-07 08:22:00,77.0,74.0,30.04,WNW,302,0.0,-999.0,92,-99.99,,,-99.99,,2013-07-07 12:22:00,
2013-07-07 08:34:00,78.0,75.0,30.04,WNW,302,0.0,-999.0,91,-99.99,,,-99.99,,2013-07-07 12:34:00,
2013-07-07 08:43:00,78.0,74.0,30.04,East,94,0.0,-999.0,89,-99.99,,,-99.99,,2013-07-07 12:43:00,
2013-07-07 08:52:00,78.0,74.0,30.04,East,94,0.0,-999.0,89,-99.99,,,-99.99,,2013-07-07 12:52:00,
2013-07-07 09:03:00,79.0,75.0,30.05,SSE,161,0.0,-999.0,88,-99.99,,,-99.99,,2013-07-07 13:03:00,
2013-07-07 09:12:00,79.0,75.0,30.05,SSE,161,0.0,-999.0,88,-99.99,,,-99.99,,2013-07-07 13:12:00,
2013-07-07 09:22:00,80.0,76.0,30.04,SSW,209,0.0,-999.0,87,-99.99,,,-99.99,,2013-07-07 13:22:00,
2013-07-07 09:34:00,81.0,76.0,30.04,South,184,0.0,-999.0,86,-99.99,,,-99.99,,2013-07-07 13:34:00,
2013-07-07 09:43:00,82.0,76.0,30.03,South,185,0.0,-999.0,83,-99.99,,,-99.99,,2013-07-07 13:43:00,
2013-07-07 09:52:00,82.0,76.0,30.03,South,185,0.0,-999.0,83,-99.99,,,-99.99,,2013-07-07 13:52:00,
2013-07-07 10:02:00,83.0,78.0,30.03,South,186,0.0,-999.0,84,-99.99,,,-99.99,,2013-07-07 14:02:00,
2013-07-07 10:12:00,83.0,76.0,30.04,WNW,303,0.0,-999.0,80,-99.99,,,-99.99,,2013-07-07 14:12:00,
2013-07-07 10:22:00,83.0,76.0,30.04,WNW,303,0.0,-999.0,80,-99.99,,,-99.99,,2013-07-07 14:22:00,
2013-07-07 10:34:00,84.0,76.0,30.03,WNW,302,0.0,-999.0,77,-99.99,,,-99.99,,2013-07-07 14:34:00,
2013-07-07 10:43:00,85.0,76.0,30.03,SSE,157,0.0,-999.0,75,-99.99,,,-99.99,,2013-07-07 14:43:00,
2013-07-07 10:53:00,85.0,76.0,30.03,SSE,157,0.0,-999.0,75,-99.99,,,-99.99,,2013-07-07 14:53:00,
2013-07-07 11:02:00,86.0,77.0,30.03,SE,146,0.0,-999.0,74,-99.99,,,-99.99,,2013-07-07 15:02:00,
2013-07-07 11:11:00,86.0,76.0,30.03,SSE,150,0.0,-999.0,72,-99.99,,,-99.99,,2013-07-07 15:11:00,
2013-07-07 11:22:00,86.0,76.0,30.03,SSE,150,0.0,-999.0,72,-99.99,,,-99.99,,2013-07-07 15:22:00,
2013-07-07 11:34:00,87.0,78.0,30.03,SW,225,0.0,-999.0,76,-99.99,,,-99.99,,2013-07-07 15:34:00,
2013-07-07 11:43:00,87.0,76.0,30.03,SSE,156,0.0,-999.0,70,-99.99,,,-99.99,,2013-07-07 15:43:00,
2013-07-07 11:52:00,87.0,76.0,30.03,SSE,156,0.0,-999.0,70,-99.99,,,-99.99,,2013-07-07 15:52:00,
2013-07-07 12:02:00,89.0,78.0,30.03,South,174,0.0,-999.0,70,-99.99,,,-99.99,,2013-07-07 16:02:00,
2013-07-07 12:11:00,89.0,77.0,30.03,SSE,154,0.0,-999.0,67,-99.99,,,-99.99,,2013-07-07 16:11:00,
2013-07-07 12:23:00,89.0,77.0,30.03,SSE,154,0.0,-999.0,67,-99.99,,,-99.99,,2013-07-07 16:23:00,
2013-07-07 12:43:00,90.0,79.0,30.02,SW,217,0.0,-999.0,70,-99.99,,,-99.99,,2013-07-07 16:43:00,
2013-07-07 12:53:00,90.0,79.0,30.02,SW,217,0.0,-999.0,70,-99.99,,,-99.99,,2013-07-07 16:53:00,
2013-07-07 13:02:00,92.0,77.0,30.02,South,186,0.0,-999.0,62,-99.99,,,-99.99,,2013-07-07 17:02:00,
2013-07-07 13:12:00,93.0,78.0,30.02,SSW,201,0.0,-999.0,62,-99.99,,,-99.99,,2013-07-07 17:12:00,
2013-07-07 13:22:00,93.0,78.0,30.02,SSW,201,0.0,-999.0,62,-99.99,,,-99.99,,2013-07-07 17:22:00,
2013-07-07 13:34:00,92.0,78.0,30.02,SSW,196,0.0,-999.0,63,-99.99,,,-99.99,,2013-07-07 17:34:00,
2013-07-07 13:43:00,91.0,78.0,30.01,SE,146,0.0,-999.0,65,-99.99,,,-99.99,,2013-07-07 17:43:00,
2013-07-07 13:53:00,91.0,78.0,30.01,SE,146,0.0,-999.0,65,-99.99,,,-99.99,,2013-07-07 17:53:00,
2013-07-07 14:02:00,93.0,78.0,30.00,SE,137,0.0,-999.0,61,-99.99,,,-99.99,,2013-07-07 18:02:00,
2013-07-07 14:12:00,93.0,77.0,29.99,South,178,1.0,-999.0,59,-99.99,,,-99.99,,2013-07-07 18:12:00,
2013-07-07 14:22:00,93.0,77.0,29.99,South,178,1.0,-999.0,59,-99.99,,,-99.99,,2013-07-07 18:22:00,
2013-07-07 14:33:00,94.0,78.0,29.98,South,172,0.0,-999.0,60,-99.99,,,-99.99,,2013-07-07 18:33:00,
2013-07-07 14:43:00,95.0,78.0,29.98,SSW,203,0.0,-999.0,58,-99.99,,,-99.99,,2013-07-07 18:43:00,
2013-07-07 14:53:00,95.0,78.0,29.98,SSW,203,0.0,-999.0,58,-99.99,,,-99.99,,2013-07-07 18:53:00,
2013-07-07 15:01:00,93.0,79.0,29.97,South,180,0.0,-999.0,63,-99.99,,,-99.99,,2013-07-07 19:01:00,
2013-07-07 15:22:00,93.0,78.0,29.97,SE,128,0.0,-999.0,62,-99.99,,,-99.99,,2013-07-07 19:22:00,
2013-07-07 15:34:00,94.0,78.0,29.96,South,187,0.0,-999.0,61,-99.99,,,-99.99,,2013-07-07 19:34:00,
2013-07-07 15:43:00,93.0,78.0,29.96,SSE,165,1.0,-999.0,62,-99.99,,,-99.99,,2013-07-07 19:43:00,
2013-07-07 15:54:00,93.0,78.0,29.96,SSE,165,1.0,-999.0,62,-99.99,,,-99.99,,2013-07-07 19:54:00,
2013-07-07 16:02:00,91.0,78.0,29.96,SSW,196,1.0,-999.0,65,-99.99,,,-99.99,,2013-07-07 20:02:00,
2013-07-07 16:11:00,91.0,77.0,29.96,South,186,0.0,-999.0,64,-99.99,,,-99.99,,2013-07-07 20:11:00,
2013-07-07 16:22:00,91.0,77.0,29.96,South,186,0.0,-999.0,64,-99.99,,,-99.99,,2013-07-07 20:22:00,
2013-07-07 16:34:00,93.0,78.0,29.95,South,169,0.0,-999.0,62,-99.99,,,-99.99,,2013-07-07 20:34:00,
2013-07-07 16:42:00,92.0,78.0,29.96,SSW,209,0.0,-999.0,64,-99.99,,,-99.99,,2013-07-07 20:42:00,
2013-07-07 16:53:00,92.0,78.0,29.96,SSW,209,0.0,-999.0,64,-99.99,,,-99.99,,2013-07-07 20:53:00,
2013-07-07 17:02:00,91.0,78.0,29.95,SSE,156,0.0,-999.0,67,-99.99,,,-99.99,,2013-07-07 21:02:00,
2013-07-07 17:11:00,92.0,78.0,29.95,ESE,113,0.0,-999.0,63,-99.99,,,-99.99,,2013-07-07 21:11:00,
2013-07-07 17:22:00,92.0,78.0,29.95,ESE,113,0.0,-999.0,63,-99.99,,,-99.99,,2013-07-07 21:22:00,
2013-07-07 17:34:00,91.0,78.0,29.95,South,183,0.0,-999.0,65,-99.99,,,-99.99,,2013-07-07 21:34:00,
2013-07-07 17:44:00,90.0,77.0,29.95,East,80,0.0,-999.0,65,-99.99,,,-99.99,,2013-07-07 21:44:00,
2013-07-07 17:53:00,90.0,77.0,29.95,East,80,0.0,-999.0,65,-99.99,,,-99.99,,2013-07-07 21:53:00,
2013-07-07 18:01:00,90.0,77.0,29.95,SSW,200,0.0,-999.0,65,-99.99,,,-99.99,,2013-07-07 22:01:00,
2013-07-07 18:11:00,90.0,77.0,29.94,SE,129,0.0,-999.0,65,-99.99,,,-99.99,,2013-07-07 22:11:00,
2013-07-07 18:22:00,90.0,77.0,29.94,SE,129,0.0,-999.0,65,-99.99,,,-99.99,,2013-07-07 22:22:00,
2013-07-07 18:34:00,90.0,78.0,29.96,SW,222,0.0,-999.0,67,-99.99,,,-99.99,,2013-07-07 22:34:00,
2013-07-07 18:44:00,89.0,77.0,29.98,NW,321,0.0,-999.0,68,-99.99,,,-99.99,,2013-07-07 22:44:00,
2013-07-07 18:53:00,89.0,77.0,29.98,NW,321,0.0,-999.0,68,-99.99,,,-99.99,,2013-07-07 22:53:00,
2013-07-07 19:02:00,83.0,71.0,29.99,NNE,29,1.0,-999.0,68,-99.99,,,-99.99,,2013-07-07 23:02:00,
2013-07-07 19:43:00,76.0,73.0,29.98,ENE,57,0.0,-999.0,90,-99.99,,,-99.99,,2013-07-07 23:43:00,
2013-07-07 19:53:00,76.0,73.0,29.98,ENE,57,0.0,-999.0,90,-99.99,,,-99.99,,2013-07-07 23:53:00,
2013-07-07 20:02:00,75.0,73.0,29.98,ENE,57,0.0,-999.0,92,-99.99,,,-99.99,,2013-07-08 00:02:00,
2013-07-07 20:12:00,75.0,73.0,29.99,ENE,58,0.0,-999.0,92,-99.99,,,-99.99,,2013-07-08 00:12:00,
2013-07-07 20:22:00,75.0,73.0,29.99,ENE,58,0.0,-999.0,92,-99.99,,,-99.99,,2013-07-08 00:22:00,
2013-07-07 20:33:00,74.0,72.0,30.00,ENE,58,0.0,-999.0,93,-99.99,,,-99.99,,2013-07-08 00:33:00,
2013-07-07 20:43:00,74.0,72.0,30.00,ESE,113,0.0,-999.0,93,-99.99,,,-99.99,,2013-07-08 00:43:00,
2013-07-07 20:53:00,74.0,72.0,30.00,ESE,113,0.0,-999.0,93,-99.99,,,-99.99,,2013-07-08 00:53:00,
2013-07-07 21:01:00,74.0,72.0,30.01,ESE,113,0.0,-999.0,94,-99.99,,,-99.99,,2013-07-08 01:01:00,
2013-07-07 21:11:00,73.0,71.0,30.02,ESE,113,0.0,-999.0,95,-99.99,,,-99.99,,2013-07-08 01:11:00,
2013-07-07 21:22:00,73.0,71.0,30.02,ESE,113,0.0,-999.0,95,-99.99,,,-99.99,,2013-07-08 01:22:00,
2013-07-07 21:32:00,73.0,71.0,30.01,ESE,113,0.0,-999.0,95,-99.99,,,-99.99,,2013-07-08 01:32:00,
2013-07-07 21:43:00,73.0,71.0,30.02,ESE,113,0.0,-999.0,95,-99.99,,,-99.99,,2013-07-08 01:43:00,
2013-07-07 21:53:00,73.0,71.0,30.02,ESE,113,0.0,-999.0,95,-99.99,,,-99.99,,2013-07-08 01:53:00,
2013-07-07 22:03:00,73.0,71.0,30.01,ESE,113,0.0,-999.0,95,-99.99,,,-99.99,,2013-07-08 02:03:00,
2013-07-07 22:11:00,73.0,71.0,30.02,ESE,113,0.0,-999.0,95,-99.99,,,-99.99,,2013-07-08 02:11:00,
2013-07-07 22:22:00,73.0,71.0,30.02,ESE,113,0.0,-999.0,95,-99.99,,,-99.99,,2013-07-08 02:22:00,
2013-07-07 22:33:00,73.0,72.0,30.02,ESE,113,0.0,-999.0,96,-99.99,,,-99.99,,2013-07-08 02:33:00,
2013-07-07 22:42:00,72.0,71.0,30.02,ESE,113,0.0,-999.0,96,-99.99,,,-99.99,,2013-07-08 02:42:00,
2013-07-07 22:52:00,72.0,71.0,30.02,ESE,113,0.0,-999.0,96,-99.99,,,-99.99,,2013-07-08 02:52:00,
2013-07-07 23:02:00,72.0,71.0,30.01,ESE,113,0.0,-999.0,96,-99.99,,,-99.99,,2013-07-08 03:02:00,
2013-07-07 23:12:00,72.0,71.0,30.01,ESE,113,0.0,-999.0,96,-99.99,,,-99.99,,2013-07-08 03:12:00,
2013-07-07 23:23:00,72.0,71.0,30.01,ESE,113,0.0,-999.0,96,-99.99,,,-99.99,,2013-07-08 03:23:00,
2013-07-07 23:34:00,71.0,70.0,30.02,ESE,113,0.0,-999.0,96,-99.99,,,-99.99,,2013-07-08 03:34:00,
2013-07-07 23:42:00,71.0,70.0,30.01,ESE,113,0.0,-999.0,96,-99.99,,,-99.99,,2013-07-08 03:42:00,
2013-07-07 23:52:00,71.0,70.0,30.01,ESE,113,0.0,-999.0,96,-99.99,,,-99.99,,2013-07-08 03:52:00,